QPF
0.00 0.00 0.00 0.00 0.00 0.00 0.00 0.00 0.00 0.00 0.00 0.00 0.00 0.00 0.00 0.00 0.00 0.00 0.00 0.00 0.00 0.00 0.00 0.00 0.00 0.00 0.00 0.00 0.00 0.00 0.00 0.00 0.00 0.00 0.00 0.00 0.00 0.00 0.00 0.00 0.00 0.00 0.00 0.00
0.00 0.00 0.00 0.00 0.00 0.00 0.00 0.00 0.00 0.00 0.00 0.00 0.00 0.00 0.00 0.00 0.00 0.00 0.00 0.00 0.00 0.00 0.00 0.00 0.00 0.00 0.00 0.00 0.00 0.00 0.00 0.00 0.00 0.00 0.00 0.00 0.00 0.00 0.00 0.00 0.00 0.00 0.00 0.00
0.00 0.00 0.00 0.00 0.00 0.00 0.00 0.00 0.00 0.00 0.00 0.00 0.00 0.00 0.00 0.00 0.00 0.00 0.00 0.00 0.00 0.00 0.00 0.00 0.00 0.00 0.00 0.00 0.00 0.00 0.00 0.00 0.00 0.00 0.00 0.00 0.00 0.00 0.00 0.00 0.00 0.00 0.00 0.00
0.00 0.00 0.00 0.00 0.00 0.00 0.00 0.00 0.00 0.00 0.00 0.00 0.00 0.00 0.00 0.00 0.00 0.00 0.00 0.00 0.00 0.00 0.00 0.00 0.00 0.00 0.00 0.00 0.00 0.00 0.00 0.00 0.00 0.00 0.00 0.00 0.00 0.00 0.00 0.00 0.00 0.00 0.00 0.00
0.00 0.00 0.00 0.00 0.00 0.00 0.00 0.00 0.00 0.00 0.00 0.00 0.00 0.00 0.00 0.00 0.00 0.00 0.00 0.00 0.00 0.00 0.00 0.00 0.00 0.00 0.00 0.00 0.00 0.00 0.00 0.00 0.00 0.00 0.00 0.00 0.00 0.00 0.00 0.00 0.00 0.00 0.00 0.00
0.00 0.00 0.00 0.00 0.00 0.00 0.00 0.00 0.00 0.00 0.00 0.00 0.00 0.00 0.00 0.00 0.00 0.00 0.00 0.00 0.00 0.00 0.00 0.00 0.00 0.00 0.00 0.00 0.00 0.00 0.00 0.00 0.00 0.00 0.00 0.00 0.00 0.00 0.00 0.00 0.00 0.00 0.00 0.00
0.00 0.00 0.00 0.00 0.00 0.00 0.00 0.00 0.00 0.00 0.00 0.00 0.00 0.00 0.00 0.00 0.00 0.00 0.00 0.00 0.00 0.00 0.00 0.00 0.00 0.00 0.00 0.00 0.00 0.00 0.00 0.00 0.00 0.00 0.00 0.00 0.00 0.00 0.00 0.00 0.00 0.00 0.00 0.00
0.00 0.00 0.00 0.00 0.00 0.00 0.00 0.00 0.00 0.00 0.00 0.00 0.00 0.00 0.00 0.00 0.00 0.00 0.00 0.00 0.00 0.00 0.00 0.00 0.00 0.00 0.00 0.00 0.00 0.00 0.00 0.00 0.00 0.00 0.00 0.00 0.00 0.00 0.00 0.00 0.00 0.00 0.00 0.00
0.00 0.00 0.00 0.00 0.00 0.00 0.00 0.00 0.00 0.00 0.00 0.00 0.00 0.00 0.00 0.00 0.00 0.00 0.00 0.00 0.00 0.00 0.00 0.00 0.00 0.00 0.00 0.00 0.00 0.00 0.00 0.00 0.00 0.00 0.00 0.00 0.00 0.00 0.00 0.00 0.00 0.00 0.00 0.00
0.00 0.00 0.00 0.00 0.00 0.00 0.00 0.00 0.00 0.00 0.00 0.00 0.00 0.00 0.00 0.00 0.00 0.00 0.00 0.00 0.00 0.00 0.00 0.00 0.00 0.00 0.00 0.00 0.00 0.00 0.00 0.00 0.00 0.00 0.00 0.00 0.00 0.00 0.00 0.00 0.00 0.00 0.00 0.00
0.00 0.00 0.00 0.00 0.00 0.00 0.00 0.00 0.00 0.00 0.00 0.00 0.00 0.00 0.00 0.00 0.00 0.00 0.00 0.00 0.00 0.00 0.00 0.00 0.00 0.00 0.00 0.00 0.00 0.00 0.00 0.00 0.00 0.00 0.00 0.00 0.00 0.00 0.00 0.00 0.00 0.00 0.00 0.00
0.00 0.00 0.00 0.00 0.00 0.00 0.00 0.00 0.00 0.00 0.00 0.00 0.00 0.00 0.00 0.00 0.00 0.00 0.00 0.00 0.00 0.00 0.00 0.00 0.00 0.00 0.00 0.00 0.00 0.00 0.00 0.00 0.00 0.00 0.00 0.00 0.00 0.00 0.00 0.00 0.00 0.00 0.00 0.00
0.00 0.00 0.00 0.00 0.00 0.00 0.00 0.00 0.00 0.00 0.00 0.00 0.00 0.00 0.00 0.00 0.00 0.00 0.00 0.00 0.00 0.00 0.00 0.00 0.00 0.00 0.00 0.00 0.00 0.00 0.00 0.00 0.00 0.00 0.00 0.00 0.00 0.00 0.00 0.00 0.00 0.00 0.00 0.00
0.00 0.00 0.00 0.00 0.00 0.00 0.00 0.00 0.00 0.00 0.00 0.00 0.00 0.00 0.00 0.00 0.00 0.00 0.00 0.00 0.00 0.00 0.00 0.00 0.00 0.00 0.00 0.00 0.00 0.00 0.00 0.00 0.00 0.00 0.00 0.00 0.00 0.00 0.00 0.00 0.00 0.00 0.00 0.00
0.00 0.00 0.00 0.00 0.00 0.00 0.00 0.00 0.00 0.00 0.00 0.00 0.00 0.00 0.00 0.00 0.00 0.00 0.00 0.00 0.00 0.00 0.00 0.00 0.00 0.00 0.00 0.00 0.00 0.00 0.00 0.00 0.00 0.00 0.00 0.00 0.00 0.00 0.00 0.00 0.00 0.00 0.00 0.00
0.00 0.00 0.00 0.00 0.00 0.00 0.00 0.00 0.00 0.00 0.00 0.00 0.00 0.00 0.00 0.00 0.00 0.00 0.00 0.00 0.00 0.00 0.00 0.00 0.00 0.00 0.00 0.00 0.00 0.00 0.00 0.00 0.00 0.00 0.00 0.00 0.00 0.00 0.00 0.00 0.00 0.00 0.00 0.00
0.00 0.00 0.00 0.00 0.00 0.00 0.00 0.00 0.00 0.00 0.00 0.00 0.00 0.00 0.00 0.00 0.00 0.00 0.00 0.00 0.00 0.00 0.00 0.00 0.00 0.00 0.00 0.00 0.00 0.00 0.00 0.00 0.00 0.00 0.00 0.00 0.00 0.00 0.00 0.00 0.00 0.00 0.00 0.00
0.00 0.00 0.00 0.00 0.00 0.00 0.00 0.00 0.00 0.00 0.00 0.00 0.00 0.00 0.00 0.00 0.00 0.00 0.00 0.00 0.00 0.00 0.00 0.00 0.00 0.00 0.00 0.00 0.00 0.00 0.00 0.00 0.00 0.00 0.00 0.00 0.00 0.00 0.00 0.00 0.00 0.00 0.00 0.00
0.00 0.00 0.00 0.00 0.00 0.00 0.00 0.00 0.00 0.00 0.00 0.00 0.00 0.00 0.00 0.00 0.00 0.00 0.00 0.00 0.00 0.00 0.00 0.00 0.00 0.00 0.00 0.00 0.00 0.00 0.00 0.00 0.00 0.00 0.00 0.00 0.00 0.00 0.00 0.00 0.00 0.00 0.00 0.00
0.00 0.00 0.00 0.00 0.00 0.00 0.00 0.00 0.00 0.00 0.00 0.00 0.00 0.00 0.00 0.00 0.00 0.00 0.00 0.00 0.00 0.00 0.00 0.00 0.00 0.00 0.00 0.00 0.00 0.00 0.00 0.00 0.00 0.00 0.00 0.00 0.00 0.00 0.00 0.00 0.00 0.00 0.00 0.00
0.00 0.00 0.00 0.00 0.00 0.00 0.00 0.00 0.00 0.00 0.00 0.00 0.00 0.00 0.00 0.00 0.00 0.00 0.00 0.00 0.00 0.00 0.00 0.00 0.00 0.00 0.00 0.00 0.00 0.00 0.00 0.00 0.00 0.00 0.00 0.00 0.00 0.00 0.00 0.00 0.00 0.00 0.00 0.00
0.00 0.00 0.00 0.00 0.00 0.00 0.00 0.00 0.00 0.00 0.00 0.00 0.00 0.00 0.00 0.00 0.00 0.00 0.00 0.00 0.00 0.00 0.00 0.00 0.00 0.00 0.00 0.00 0.00 0.00 0.00 0.00 0.00 0.00 0.00 0.00 0.00 0.00 0.00 0.00 0.00 0.00 0.00 0.00
0.00 0.00 0.00 0.00 0.00 0.00 0.00 0.00 0.00 0.00 0.00 0.00 0.00 0.00 0.00 0.00 0.00 0.00 0.00 0.00 0.00 0.00 0.00 0.00 0.00 0.00 0.00 0.00 0.00 0.00 0.00 0.00 0.00 0.00 0.00 0.00 0.00 0.00 0.00 0.00 0.00 0.00 0.00 0.00
0.00 0.00 0.00 0.00 0.00 0.00 0.00 0.00 0.00 0.00 0.00 0.00 0.00 0.00 0.00 0.00 0.00 0.00 0.00 0.00 0.00 0.00 0.00 0.00 0.00 0.00 0.00 0.00 0.00 0.00 0.00 0.00 0.00 0.00 0.00 0.00 0.00 0.00 0.00 0.00 0.00 0.00 0.00 0.00
0.00 0.01 0.00 0.00 0.00 0.00 0.00 0.00 0.00 0.00 0.00 0.00 0.00 0.00 0.00 0.00 0.00 0.00 0.00 0.00 0.00 0.00 0.00 0.00 0.00 0.00 0.00 0.00 0.00 0.00 0.00 0.00 0.00 0.00 0.00 0.00 0.00 0.00 0.00 0.00 0.00 0.00 0.00 0.00
0.00 0.00 0.00 0.00 0.00 0.00 0.00 0.00 0.00 0.00 0.00 0.00 0.00 0.00 0.00 0.00 0.00 0.00 0.00 0.00 0.00 0.00 0.00 0.00 0.00 0.00 0.00 0.00 0.00 0.00 0.00 0.00 0.00 0.00 0.00 0.00 0.00 0.00 0.00 0.00 0.00 0.00 0.00 0.00
MSLP
1007.36 1007.89 1005.83 1005.06 1006.09 1006.78 1007.14 1007.40 1006.78 1005.96 1006.12 1006.27 1005.70 1005.42 1004.29 1003.35 1003.50 1003.02 1002.37 1002.05 1001.55 1001.34 1001.42 1001.76 1002.47 1003.22 1004.23 1004.89 1006.02 1006.49 1007.75 1008.63 1009.13 1009.54 1009.66 1009.46 1009.15 1009.12 1009.02 1008.92 1008.77 1008.76 1008.79 1008.91
1007.19 1004.32 1004.46 1005.27 1005.86 1006.27 1006.58 1006.64 1006.19 1005.64 1005.99 1006.24 1005.53 1005.21 1004.10 1003.27 1002.64 1002.26 1001.83 1001.21 1001.09 1001.37 1001.72 1002.42 1002.92 1003.41 1004.00 1004.91 1005.90 1006.96 1007.48 1008.40 1008.78 1008.97 1008.94 1008.89 1008.96 1009.05 1008.96 1008.82 1008.62 1008.54 1008.49 1008.50
1003.84 1001.34 1004.10 1004.40 1004.72 1005.35 1005.47 1005.50 1005.77 1005.58 1006.15 1005.92 1005.76 1005.00 1004.10 1002.36 1001.97 1001.59 1001.07 1000.77 1000.71 1001.30 1002.01 1002.95 1003.44 1003.99 1004.63 1005.56 1006.44 1007.09 1007.46 1008.09 1008.41 1008.53 1008.59 1008.76 1009.03 1009.01 1008.92 1008.77 1008.59 1008.56 1008.34 1008.20
1003.61 1003.14 1002.93 1003.29 1003.21 1003.93 1004.19 1004.74 1005.44 1006.00 1006.85 1007.07 1005.96 1005.35 1004.56 1002.92 1001.88 1001.17 1000.16 1000.15 1000.40 1001.23 1002.57 1003.17 1003.73 1004.47 1005.12 1005.99 1006.36 1006.99 1007.48 1007.94 1008.15 1008.20 1008.50 1008.87 1009.10 1009.16 1009.03 1008.88 1008.73 1008.51 1008.29 1008.12
1001.28 1001.43 1001.88 1001.73 1001.73 1003.06 1003.05 1004.29 1005.29 1006.35 1007.01 1007.48 1006.82 1006.73 1003.77 1003.31 1002.14 1000.78 1000.21 1000.02 1000.34 1001.34 1002.52 1003.23 1003.93 1004.46 1005.25 1006.00 1006.39 1006.93 1007.52 1007.88 1007.98 1008.10 1008.49 1008.76 1008.88 1008.97 1008.95 1008.79 1008.71 1008.42 1008.27 1008.18
1001.29 1000.82 1001.05 1000.56 1001.76 1002.62 1003.62 1004.56 1005.95 1006.76 1007.52 1007.22 1006.80 1006.76 1003.19 1002.84 1001.29 1000.62 1000.04 1000.17 1000.97 1001.86 1002.99 1003.61 1004.22 1004.71 1005.56 1006.33 1006.69 1007.06 1007.48 1007.82 1007.87 1008.18 1008.43 1008.56 1008.69 1008.84 1008.80 1008.76 1008.60 1008.45 1008.31 1008.26
1001.47 1000.98 1000.43 1000.30 1001.27 1002.32 1003.53 1004.93 1007.02 1007.75 1007.86 1006.75 1005.85 1005.72 1002.32 1001.00 1000.30 999.91 999.91 1000.41 1001.53 1002.87 1002.94 1003.68 1004.18 1004.84 1005.72 1006.38 1006.86 1007.09 1007.46 1007.75 1007.94 1008.19 1008.34 1008.47 1008.54 1008.67 1008.63 1008.67 1008.57 1008.47 1008.35 1008.43
1001.37 1001.02 1000.04 999.32 999.65 1000.80 1002.28 1003.79 1005.02 1006.87 1007.01 1006.15 1004.42 1003.17 1001.12 999.53 998.93 999.12 999.49 1000.20 1001.61 1002.71 1003.54 1003.64 1004.34 1004.89 1005.70 1006.30 1006.69 1006.94 1007.38 1007.67 1007.96 1008.11 1008.33 1008.31 1008.41 1008.43 1008.50 1008.52 1008.45 1008.36 1008.35 1008.43
1000.99 1000.13 998.80 998.65 999.03 1000.10 1001.86 1002.79 1003.97 1005.16 1005.64 1005.55 1003.52 1001.60 999.94 998.88 998.71 999.08 999.72 1000.48 1001.77 1002.70 1003.52 1003.73 1004.37 1004.78 1005.64 1006.20 1006.49 1006.77 1007.28 1007.64 1007.83 1008.08 1008.21 1008.28 1008.21 1008.23 1008.42 1008.40 1008.27 1008.28 1008.31 1008.39
1000.88 1000.19 998.64 998.58 998.92 999.41 999.72 1001.79 1003.72 1004.51 1005.27 1005.06 1002.98 1001.43 999.46 998.32 998.21 998.69 999.52 1000.51 1001.84 1002.85 1003.49 1003.82 1004.49 1004.91 1005.57 1005.96 1006.28 1006.76 1007.12 1007.41 1007.71 1008.02 1008.04 1008.16 1008.02 1008.16 1008.37 1008.31 1008.26 1008.30 1008.34 1008.40
1001.91 1000.78 999.34 998.56 997.71 998.39 999.95 1000.73 1001.83 1003.05 1004.09 1003.95 1003.18 1000.67 998.31 997.63 997.71 998.43 999.25 1000.48 1001.79 1002.50 1003.10 1003.62 1004.37 1004.86 1005.39 1005.94 1006.42 1006.76 1007.22 1007.46 1007.70 1007.92 1007.98 1008.14 1008.09 1008.26 1008.45 1008.33 1008.24 1008.38 1008.43 1008.49
1003.73 1002.45 1000.58 998.92 997.98 998.21 998.64 999.25 1000.01 1001.34 1002.35 1002.89 1002.09 1000.10 997.58 997.15 997.33 998.13 998.89 1000.12 1001.55 1002.34 1002.89 1003.56 1004.14 1004.78 1005.41 1005.94 1006.46 1006.81 1007.14 1007.44 1007.59 1007.83 1007.97 1008.22 1008.19 1008.37 1008.55 1008.46 1008.40 1008.45 1008.45 1008.46
1004.90 1003.59 1002.21 1000.39 999.28 998.23 997.89 998.35 999.35 1000.34 1001.34 1001.83 1001.53 999.59 997.28 997.22 997.26 998.19 999.22 1000.12 1001.22 1002.14 1002.94 1003.55 1004.15 1004.77 1005.26 1005.82 1006.25 1006.68 1007.01 1007.27 1007.55 1007.79 1008.05 1008.38 1008.33 1008.58 1008.72 1008.64 1008.50 1008.48 1008.55 1008.68
1005.81 1004.81 1003.59 1001.44 999.46 998.58 998.56 998.62 999.03 999.76 1000.52 1000.36 999.27 998.75 997.75 997.33 997.73 998.48 999.04 1000.11 1001.08 1001.93 1002.66 1003.22 1003.96 1004.46 1005.02 1005.52 1005.96 1006.46 1006.86 1007.09 1007.44 1007.80 1008.19 1008.44 1008.43 1008.69 1008.80 1008.71 1008.59 1008.57 1008.71 1008.91
1006.82 1005.82 1004.37 1002.52 1000.88 999.94 998.70 997.87 997.92 997.97 998.56 998.80 998.24 997.97 997.34 997.09 997.20 997.67 998.35 999.92 1000.95 1001.68 1002.19 1002.74 1003.40 1004.08 1004.78 1005.32 1005.74 1006.22 1006.59 1006.96 1007.38 1007.81 1008.26 1008.48 1008.47 1008.73 1008.86 1008.75 1008.72 1008.77 1008.88 1009.18
1007.50 1006.43 1005.04 1003.03 1000.83 1000.14 999.05 997.99 997.31 997.39 997.57 997.82 997.61 997.09 996.45 996.39 997.12 997.67 997.97 999.18 1000.14 1000.87 1001.41 1002.03 1002.76 1003.49 1004.27 1004.82 1005.36 1005.89 1006.37 1006.83 1007.28 1007.73 1008.17 1008.45 1008.55 1008.77 1009.01 1009.04 1009.04 1009.12 1009.27 1009.46
1007.40 1007.01 1006.01 1004.23 1002.23 1000.51 998.67 996.50 997.10 997.16 996.65 997.03 997.00 995.87 996.30 996.56 996.76 997.20 997.50 998.05 998.73 999.70 1000.25 1000.98 1001.76 1002.57 1003.52 1004.14 1004.72 1005.47 1005.99 1006.60 1007.20 1007.57 1008.02 1008.42 1008.63 1008.83 1009.16 1009.29 1009.40 1009.51 1009.65 1009.73
1006.56 1006.84 1006.39 1004.98 1003.01 1000.66 997.27 995.65 996.24 996.86 996.65 996.78 996.39 996.01 995.91 995.78 995.44 995.64 995.95 996.57 997.72 998.70 999.57 1000.28 1001.15 1002.07 1002.90 1003.56 1004.24 1004.96 1005.73 1006.42 1007.02 1007.51 1007.91 1008.40 1008.69 1008.89 1009.31 1009.62 1009.83 1009.97 1010.10 1010.26
1006.06 1006.68 1006.32 1005.29 1003.51 1000.29 997.67 997.58 997.90 997.32 997.11 996.98 996.84 996.22 995.66 995.21 995.59 995.64 995.50 995.33 995.84 996.78 997.78 998.71 999.90 1001.04 1002.22 1003.03 1003.75 1004.67 1005.67 1006.26 1006.83 1007.32 1007.76 1008.25 1008.63 1008.90 1009.24 1009.76 1010.11 1010.32 1010.34 1010.63
1005.79 1006.24 1006.39 1005.43 1004.24 1001.41 999.77 999.01 998.33 998.26 998.57 998.52 998.18 997.21 996.05 995.76 995.76 994.77 994.33 994.85 995.78 996.80 997.58 998.52 999.55 1000.76 1001.70 1002.60 1003.35 1004.33 1005.28 1005.95 1006.48 1006.90 1007.35 1007.88 1008.40 1008.81 1009.23 1009.63 1010.05 1010.47 1010.65 1010.85
1005.55 1006.39 1006.18 1005.59 1004.54 1002.04 1000.98 999.00 997.99 999.07 1000.60 999.62 999.19 998.38 997.61 995.66 993.94 992.70 993.06 994.02 994.73 995.48 996.72 997.91 999.12 999.98 1000.96 1002.05 1002.94 1003.94 1004.73 1005.30 1005.66 1006.41 1007.07 1007.73 1008.23 1008.66 1009.11 1009.64 1010.09 1010.59 1010.93 1011.17
1005.39 1005.82 1005.93 1005.63 1004.47 1002.76 1001.22 999.84 1000.60 1001.75 1000.82 1000.36 999.55 998.92 997.94 996.42 994.44 993.17 992.85 993.33 994.39 995.27 996.53 997.62 998.55 999.65 1000.50 1001.46 1002.36 1003.34 1004.06 1004.43 1005.35 1006.08 1006.82 1007.49 1008.12 1008.57 1009.18 1009.62 1010.26 1010.76 1011.08 1011.53
1005.91 1005.74 1005.69 1005.54 1003.82 1002.46 1002.18 1001.94 1001.54 1001.42 1001.20 1000.27 999.64 998.52 997.77 996.44 994.91 993.79 992.85 993.15 993.80 994.53 995.45 996.46 997.61 999.01 999.97 1000.78 1001.51 1002.36 1003.10 1004.10 1005.02 1005.86 1006.53 1007.21 1007.93 1008.50 1009.08 1009.61 1010.23 1010.93 1011.30 1011.71
1005.71 1005.77 1005.39 1005.05 1003.05 1002.86 1001.83 1001.44 1001.40 1001.19 1000.63 999.99 999.16 998.10 997.07 995.86 994.69 993.56 993.26 992.75 993.46 994.17 994.97 995.97 997.17 998.36 999.20 999.92 1000.56 1001.10 1002.40 1003.43 1004.51 1005.49 1006.30 1006.98 1007.74 1008.45 1009.05 1009.55 1009.98 1010.60 1011.26 1011.79
1006.46 1005.89 1005.34 1004.73 1003.48 1002.40 1001.42 1001.39 1001.29 1000.55 999.94 999.09 998.32 997.48 996.35 995.41 993.92 993.17 992.75 992.90 992.78 993.42 994.40 995.29 996.18 997.14 997.99 999.02 999.88 1000.72 1001.75 1002.77 1003.97 1005.00 1005.90 1006.72 1007.40 1008.04 1008.84 1009.41 1009.84 1010.23 1010.59 1010.86
1006.15 1005.53 1005.37 1004.80 1003.94 1003.65 1002.54 1001.77 1001.28 1000.62 999.84 999.00 998.42 996.96 995.74 995.08 993.65 992.53 992.10 992.00 992.62 993.01 993.88 994.77 995.58 996.58 997.52 998.38 999.12 1000.02 1000.93 1001.91 1003.07 1004.47 1005.43 1006.16 1006.89 1007.68 1008.29 1009.05 1009.95 1010.23 1010.37 1010.74
Thickness
5648 5635 5652 5679 5679 5676 5675 5670 5673 5696 5707 5692 5692 5687 5714 5730 5722 5730 5741 5750 5757 5759 5766 5761 5753 5748 5738 5732 5719 5712 5699 5687 5678 5671 5664 5662 5661 5657 5653 5648 5645 5640 5636 5630
5632 5650 5678 5673 5668 5669 5666 5666 5670 5700 5699 5690 5691 5686 5708 5723 5730 5734 5744 5756 5756 5758 5757 5749 5745 5740 5735 5727 5715 5702 5696 5684 5676 5671 5666 5663 5658 5652 5648 5644 5642 5637 5633 5627
5652 5691 5674 5665 5665 5658 5665 5666 5678 5685 5684 5687 5680 5679 5697 5727 5732 5738 5748 5753 5757 5753 5748 5739 5736 5730 5724 5715 5705 5697 5691 5682 5675 5669 5665 5660 5653 5648 5644 5641 5637 5633 5630 5625
5645 5667 5663 5656 5660 5667 5658 5680 5681 5678 5663 5642 5676 5638 5685 5710 5720 5735 5752 5754 5757 5752 5737 5734 5730 5721 5716 5707 5701 5694 5687 5678 5672 5668 5662 5655 5647 5642 5639 5636 5632 5629 5627 5623
5655 5665 5659 5659 5667 5670 5667 5683 5674 5668 5653 5648 5659 5636 5686 5701 5709 5732 5747 5755 5755 5743 5735 5732 5725 5719 5711 5702 5697 5690 5681 5674 5669 5665 5658 5651 5645 5640 5636 5633 5629 5627 5623 5620
5648 5666 5664 5672 5672 5670 5672 5661 5654 5651 5641 5619 5654 5646 5682 5691 5719 5732 5746 5752 5743 5734 5728 5725 5719 5713 5703 5694 5690 5684 5677 5670 5667 5662 5656 5649 5645 5639 5634 5630 5627 5624 5620 5616
5629 5640 5662 5669 5654 5656 5651 5637 5608 5610 5609 5614 5673 5649 5690 5713 5724 5737 5742 5745 5732 5724 5728 5721 5716 5708 5697 5691 5685 5680 5673 5668 5664 5659 5652 5648 5644 5638 5633 5628 5625 5621 5618 5614
5611 5614 5648 5669 5665 5656 5657 5648 5625 5610 5615 5641 5680 5656 5690 5732 5743 5742 5746 5745 5729 5722 5719 5719 5712 5703 5696 5688 5683 5678 5672 5667 5661 5656 5650 5648 5642 5638 5633 5628 5624 5620 5616 5615
5611 5621 5660 5671 5675 5672 5647 5641 5656 5642 5645 5634 5663 5687 5719 5731 5735 5739 5739 5734 5724 5719 5715 5715 5706 5702 5693 5686 5682 5678 5671 5665 5660 5654 5650 5646 5643 5639 5633 5628 5625 5621 5617 5617
5618 5613 5651 5659 5667 5672 5668 5664 5637 5631 5624 5624 5654 5679 5700 5728 5738 5741 5737 5731 5721 5716 5714 5711 5705 5699 5691 5686 5682 5676 5671 5665 5660 5653 5650 5646 5644 5640 5633 5630 5625 5620 5619 5619
5596 5610 5635 5647 5656 5652 5643 5646 5642 5647 5625 5623 5634 5666 5715 5733 5740 5739 5735 5728 5719 5717 5714 5711 5704 5697 5691 5684 5679 5674 5668 5664 5659 5654 5651 5647 5644 5639 5633 5631 5627 5623 5623 5622
5567 5582 5613 5639 5659 5671 5670 5659 5661 5656 5644 5642 5648 5667 5729 5734 5741 5740 5739 5730 5718 5716 5714 5710 5702 5694 5688 5682 5677 5673 5669 5664 5660 5656 5653 5647 5644 5639 5634 5632 5629 5627 5627 5627
5551 5563 5594 5618 5636 5654 5659 5667 5662 5649 5642 5644 5645 5664 5727 5732 5741 5735 5731 5727 5720 5716 5709 5704 5697 5692 5688 5682 5678 5675 5670 5666 5662 5657 5652 5646 5643 5637 5633 5632 5631 5631 5630 5628
5542 5548 5575 5609 5632 5646 5643 5652 5658 5647 5629 5646 5682 5691 5716 5725 5728 5728 5730 5724 5717 5714 5710 5706 5698 5694 5689 5684 5681 5676 5671 5668 5664 5658 5651 5647 5643 5637 5635 5635 5634 5633 5632 5630
5523 5533 5569 5594 5614 5624 5641 5659 5663 5664 5673 5662 5684 5692 5710 5721 5728 5733 5733 5722 5716 5711 5711 5707 5701 5696 5689 5684 5682 5678 5674 5669 5664 5658 5651 5647 5644 5640 5638 5638 5638 5637 5635 5632
5509 5522 5554 5585 5619 5624 5629 5643 5661 5669 5677 5678 5688 5693 5720 5732 5727 5730 5734 5727 5720 5716 5715 5711 5705 5701 5693 5690 5685 5680 5675 5671 5666 5660 5654 5649 5647 5644 5642 5640 5639 5638 5636 5634
5501 5510 5533 5564 5592 5606 5619 5657 5655 5665 5686 5686 5677 5717 5718 5723 5724 5728 5730 5734 5730 5724 5723 5718 5713 5707 5700 5695 5691 5683 5678 5673 5666 5662 5657 5653 5650 5647 5643 5641 5639 5638 5637 5635
5506 5513 5525 5545 5574 5597 5654 5677 5675 5671 5686 5693 5703 5712 5720 5729 5738 5742 5748 5746 5736 5730 5726 5723 5717 5711 5705 5701 5695 5689 5681 5675 5669 5664 5661 5656 5653 5650 5646 5643 5640 5638 5637 5636
5511 5513 5519 5536 5567 5618 5650 5643 5644 5666 5680 5692 5699 5714 5721 5731 5732 5737 5747 5755 5751 5746 5741 5736 5727 5719 5708 5704 5700 5692 5682 5677 5672 5668 5665 5661 5658 5654 5650 5647 5644 5641 5640 5637
5512 5513 5524 5535 5561 5599 5613 5634 5644 5654 5665 5665 5676 5698 5714 5718 5707 5730 5751 5754 5748 5744 5740 5735 5728 5719 5712 5708 5703 5695 5685 5680 5676 5674 5671 5667 5663 5659 5654 5651 5648 5644 5642 5641
5498 5493 5509 5527 5548 5586 5601 5629 5646 5651 5647 5655 5668 5681 5687 5713 5740 5764 5762 5757 5757 5754 5745 5738 5730 5724 5718 5711 5706 5698 5691 5686 5686 5681 5676 5671 5667 5663 5660 5655 5651 5648 5645 5643
5511 5513 5511 5526 5549 5577 5593 5617 5613 5613 5637 5649 5663 5675 5687 5706 5733 5752 5758 5761 5753 5751 5743 5739 5732 5725 5720 5715 5709 5702 5696 5696 5689 5685 5680 5675 5670 5667 5662 5659 5653 5649 5647 5644
5504 5509 5516 5527 5558 5574 5581 5595 5607 5616 5629 5647 5660 5677 5689 5707 5724 5740 5753 5756 5757 5755 5751 5747 5739 5728 5723 5719 5716 5709 5705 5698 5692 5687 5683 5678 5674 5670 5666 5662 5657 5652 5649 5647
5499 5503 5516 5526 5560 5568 5583 5596 5608 5616 5631 5647 5662 5679 5693 5710 5724 5740 5745 5755 5755 5754 5751 5747 5739 5731 5726 5725 5721 5720 5710 5705 5696 5689 5685 5681 5677 5672 5667 5665 5663 5659 5654 5650
5481 5498 5508 5523 5550 5568 5586 5588 5600 5615 5632 5649 5665 5680 5697 5711 5726 5740 5746 5749 5759 5757 5752 5749 5744 5739 5734 5729 5726 5720 5714 5708 5700 5693 5688 5683 5680 5677 5671 5668 5666 5665 5663 5662
5484 5497 5507 5521 5538 5548 5566 5580 5593 5608 5625 5643 5658 5679 5699 5710 5726 5743 5750 5757 5755 5756 5752 5749 5746 5740 5735 5732 5729 5723 5719 5714 5706 5696 5690 5687 5684 5679 5677 5672 5667 5662 5666 5663